Regional Weather Roundup
Issued by NWS

Home | Current Version | Previous Version | Graphics & Text | Print | Product List | Glossary On
Versions: 1 2 3 4 5 6 7 8 9 10 11 12 13 14 15 16 17 18 19 20 21 22 23 24 25 26 27 28 29 30 31 32 33 34 35 36 37 38 39 40 41 42 43 44 45 46 47 48 49 50
000
ASUS43 KMKX 222111
RWRWI

WISCONSIN REGIONAL WEATHER ROUNDUP
NATIONAL WEATHER SERVICE MILWAUKEE/SULLIVAN WI
400 PM CDT WED MAR 22 2017

NOTE: "FAIR" INDICATES FEW OR NO CLOUDS BELOW 12,000 FEET WITH NO
SIGNIFICANT WEATHER AND/OR OBSTRUCTIONS TO VISIBILITY.

WIZ001-002-006>008-014>016-023>028-222200-
NORTHWEST WISCONSIN

CITY           SKY/WX    TMP DP  RH WIND       PRES   REMARKS
SUPERIOR ARPT  MOSUNNY   31  17  55 NE8       30.45F WCI  24
ASHLAND        CLOUDY    33  13  43 NE8       30.46F WCI  26
HAYWARD        CLOUDY    38   5  25 S12       30.43F WCI  30
SIREN          CLOUDY    37   4  25 S8        30.42F WCI  31
CUMBERLAND     MOSUNNY   34   9  35 SE10      30.43F WCI  26
RICE LAKE      MOSUNNY   35   7  31 CALM      30.46F
CHETEK         MOSUNNY   36   8  30 S7        30.45F WCI  30
LADYSMITH      SUNNY     37  10  33 S9        30.47F WCI  30
EAU CLAIRE     CLOUDY    38   4  24 SE12      30.46F WCI  30
MENOMONIE      SUNNY     39   5  24 SE8       30.46F WCI  34
NEW RICHMOND   SUNNY     38   7  28 SE13      30.43F WCI  30
OSCEOLA        SUNNY     38   8  29 SE13      30.45F WCI  30
$$

WIZ003>005-009-010-017-018-222200-
NORTH CENTRAL WISCONSIN

CITY           SKY/WX    TMP DP  RH WIND       PRES   REMARKS
MANITOWISH WTR CLOUDY    32   2  27 S5        30.43F WCI  27
ARBOR VITAE    CLOUDY    34   2  26 S7        30.43F WCI  28
WOODRUFF       CLOUDY    34   2  26 S7        30.43F WCI  28
RHINELANDER    CLOUDY    36   3  25 W8        30.45F WCI  30
EAGLE RIVER    SUNNY     35  -1  21 SW3       30.43F
LAND O LAKES   SUNNY     34  -3  20 SW5       30.44F WCI  30
PHILLIPS       MOSUNNY   34   7  31 S5        30.44F WCI  30
TOMAHAWK       CLOUDY    35   5  29 CALM      30.46F
MEDFORD        SUNNY     31  11  42 SE5       30.45F WCI  27
MERRILL        SUNNY     35   7  31 CALM      30.48F
$$

WIZ029-030-035-036-043>047-222200-
CENTRAL WISCONSIN

CITY           SKY/WX    TMP DP  RH WIND       PRES   REMARKS
WAUSAU         SUNNY     34   5  29 S6        30.46F WCI  29
MOSINEE        MOSUNNY   34   7  32 SW6       30.48F WCI  29
MARSHFIELD     SUNNY     35   8  32 S7        30.46F WCI  29
STEVENS POINT  SUNNY     33   5  31 S7        30.49F WCI  27
WAUPACA        SUNNY     37   8  30 SE6       30.52F WCI  32
WAUTOMA        SUNNY     37  12  35 SE10      30.51F WCI  30
WISC RAPIDS    SUNNY     37   5  26 VRB6      30.50F WCI  32
CAMP DOUGLAS   PTSUNNY   39   7  26 SE6       30.48F WCI  35
$$

WIZ011>013-019>022-031-037>040-048>050-222200-
NORTHEAST WISCONSIN

CITY           SKY/WX    TMP DP  RH WIND       PRES   REMARKS
ANTIGO         SUNNY     32   6  32 SW5       30.47F WCI  28
SHAWANO        SUNNY     35  14  42 NE7       30.54S WCI  29
OCONTO         SUNNY     30  12  46 S7        30.56F WCI  23
STURGEON BAY   SUNNY     29  16  58 SE5       30.57F WCI  24
GREEN BAY      SUNNY     36  16  44 CALM      30.54F
MANITOWOC      SUNNY     28  18  66 SE8       30.58S WCI  20
APPLETON       MOSUNNY   34   7  32 VRB6      30.52F WCI  29
CLINTONVILLE   SUNNY     34   9  35 SW5       30.53F WCI  30
OSHKOSH        SUNNY     33  17  51 NE7       30.53F WCI  27
$$

WIZ032>034-041-042-053>061-222200-
SOUTHWEST WISCONSIN

CITY           SKY/WX    TMP DP  RH WIND       PRES   REMARKS
LA CROSSE      SUNNY     43   8  23 VRB7      30.47F
SPARTA         SUNNY     40   8  27 S8        30.48F WCI  34
VIROQUA        SUNNY     38   6  26 SE8       30.45F WCI  33
BOSCOBEL       SUNNY     41   6  23 VRB3      30.48F
PRAIRIE DU CHI MOSUNNY   41   7  24 SE7       30.47F
PLATTEVILLE    SUNNY     40  14  35 SE10      30.47F WCI  33
$$

WIZ056-057-062-063-064-067-068-222200-
SOUTH CENTRAL WISCONSIN

CITY           SKY/WX    TMP DP  RH WIND       PRES   REMARKS
REEDSBURG      SUNNY     37  10  32 SE7       30.48F WCI  32
BARABOO/DELLS  SUNNY     39  13  34 E9        30.48F WCI  32
LONE ROCK      SUNNY     41  10  28 E10       30.49F
MINERAL POINT  SUNNY     41  10  28 E8        30.46F
MADISON        PTSUNNY   38  13  35 SE9       30.49F WCI  31
MIDDLETON      SUNNY     39  15  37 E6        30.49F WCI  35
WATERTOWN      SUNNY     37  16  43 SE5       30.50F WCI  33
MONROE         SUNNY     37  14  38 SE10      30.47F WCI  30
JANESVILLE     MOSUNNY   43  16  33 E12       30.49F
$$

WIZ051-052-058>065-066-070>072-222200-
SOUTHEAST WISCONSIN

CITY           SKY/WX    TMP DP  RH WIND       PRES   REMARKS
MILWAUKEE      PTSUNNY   32  17  54 VRB7      30.56F WCI  26
WAUKESHA       SUNNY     34  16  47 E9        30.54F WCI  26
MILWAUKEE/TIMM MOSUNNY   32  16  51 E8        30.56F WCI  25
RACINE         MOSUNNY   32  17  54 E9        30.57F WCI  24
KENOSHA        SUNNY     31  18  58 E12       30.54F WCI  22
FOND DU LAC    SUNNY     35  16  45 E7        30.52F WCI  29
SHEBOYGAN      SUNNY     30  17  58 E7        30.56S WCI  23
WEST BEND      MOSUNNY   32  18  55 SE6       30.53F WCI  26
JUNEAU         SUNNY     35  16  46 SE5       30.52F WCI  31
$$

LSZ147-162-222200-
LAKE SUPERIOR

STATION/POSITION TIME  TEMP    WIND        PRES    WAVE
                       AIR SEA DIR/SP/G            HT/PER
                 (UTC) (F)     (DEG/KT/KT) (MB)    (FT/S)
DEVILS ISLAND    2100   26      70/  9/ 10 1033.3F
PORT WING        2030   29      30/ 13/ 15 1031.8F
SAXON HARBOR     2030   28      40/ 11/ 13 1032.2F
$$

LMZ867-665-643>646-222200-
LAKE MICHIGAN

STATION/POSITION TIME  TEMP    WIND        PRES    WAVE
                       AIR SEA DIR/SP/G            HT/PER
                 (UTC) (F)     (DEG/KT/KT) (MB)    (FT/S)
CHAMBERS ISLAND  2040   26      40/  4/  5 1034.9F
NORTHPORT PIER   2040   24     130/  3/  5 1035.2F
SISTER BAY       2021   39     300/  1/  3   N/A
KEWAUNEE LAKESHO 2042   27     110/  4/  6 1035.0S
SHEBOYGAN LAKESH 2100   26      60/  6/  8 1036.1F
PORT WASHINGTON  2040   29      90/  6/  9 1035.9F
MILWAUKEE LAKESH 2050   29      70/  8/  8   N/A
KENOSHA   LAKESH 2100   28      70/  7/ 10 1034.5
$$

TC  - TEMPERATURE IN CELSIUS
VSB - VISIBILITY IN STATUTE MILES
WCI - WIND CHILL INDEX
HX  - HEAT INDEX





USA.gov is the U.S. government's official web portal to all federal, state and local government web resources and services.